Location: Alafon
(8.4500°N, 4.2333°E)
Time: 01:46:14
(UTC+00:00)

Ariane Rocket - Pass Details

Date: 05 July 2020
Orbit: 759 x 771 km, 98.7° (Epoch: 06 August)

Event Time Altitude Azimuth Distance (km) Brightness Sun altitude
Exits shadow 19:29:26 38° 128° (SE) 1,168 3.4 -19.6°
Maximum altitude 19:31:01 52° 77° (ENE) 948 3.1 -19.9°
Drops below altitude 10° 19:35:57 10° 1° (N) 2,305 5.8 -21.0°
Sets 19:38:18 0° 356° (N) 3,231 6.7 -21.5°
